Flag for China Weather past 2 weeks in Lanzhou, Gansu, China

Now
61 °F

Overcast.


Feels Like: 61 °F
Forecast: 53 / 67 °F
Wind: 3 mph from Northwest

Location: Lanzhou / Zhongchuan

Current Time: Jul 3, 2015 at 2:54:40 PM

Latest Report: Jul 3, 2015 at 2:00 PM


Visibility: N/A

Pressure: 30.09 "Hg

Humidity: 72%

Dew point: 52 °F

Location of LanzhouLocation

Historic Weather in Lanzhou — Graph

°F

Lanzhou temperature yesterday

Maximum temperature yesterday: 64 °F (at 2:00 PM)
Minimum temperature yesterday: 59 °F (at 3:00 AM)
Average temperature yesterday: 61 °F

Past Weeks' High & Low Weather Summary

 TemperatureHumidityPressure
High86 °F (Jun 26, 5:00 PM)100% (Jun 23, 4:00 AM)30.15 "Hg (Jun 23, 4:00 AM)
Low50 °F (Jun 21, 5:00 AM)26% (Jun 18, 4:00 PM)29.59 "Hg (Jun 26, 4:00 PM)
Average65 °F72%29.94 "Hg
* Reported Jun 18 1:00 PM — Jul 3 1:00 PM, Lanzhou, Weather by CustomWeather, © 2015

Note: Actual official high and low records may vary slightly from our data, if they occured in-between our weather recording intervals... More about our weather records

Advertising

Lanzhou weather history for previous 24 hours

 ConditionsComfort  
Time TempWeatherWind HumidityBarometerVisibility
1:00 PM
Fri, Jul 3
61 °FOvercast.6 mph68%30.12 "HgN/A
12:00 PM59 °FLight rain. Overcast.3 mph77%30.12 "HgN/A
11:00 AM59 °FLight rain. Overcast.6 mph77%30.15 "HgN/A
10:00 AM57 °FLight rain. Overcast.8 mph82%30.12 "HgN/A
9:00 AM57 °FLight rain. Overcast.6 mph88%30.12 "HgN/A
8:00 AM55 °FLight rain. Overcast.6 mph88%30.09 "HgN/A
7:00 AM55 °FLight rain. Overcast.8 mph88%30.09 "HgN/A
6:00 AM55 °FLight rain. Overcast.8 mph82%30.09 "HgN/A
5:00 AM55 °FLight rain. Overcast.8 mph82%30.09 "HgN/A
4:00 AM57 °FLight rain. Overcast.6 mph77%30.09 "HgN/A
3:00 AM59 °FLight rain. Overcast.6 mph72%30.07 "HgN/A
2:00 AM59 °FLight rain. Overcast.6 mph72%30.07 "HgN/A
1:00 AM61 °FPassing clouds.3 mph63%30.07 "HgN/A
12:00 AM61 °FPassing clouds.6 mph63%30.07 "HgN/A
11:00 PM
Thu, Jul 2
61 °FPassing clouds.6 mph68%30.07 "HgN/A
10:00 PM61 °FPassing clouds.6 mph77%30.07 "HgN/A
9:00 PM63 °FLight rain. Partly sunny.3 mph77%30.07 "HgN/A
8:00 PM63 °FLight rain. Fog.3 mph88%30.04 "Hg3 mi
7:00 PM63 °FFog.3 mph88%30.01 "Hg2 mi
6:00 PM63 °FFog.6 mph88%30.01 "Hg2 mi
5:00 PM64 °FFog.8 mph83%30.01 "Hg2 mi
4:00 PM64 °FScattered clouds.3 mph78%30.01 "HgN/A
3:00 PM64 °FScattered clouds.3 mph73%30.04 "HgN/A
2:00 PM64 °FScattered clouds.3 mph73%30.04 "HgN/A
Weather by CustomWeather, © 2015

See weather overviewHow to use our weather pages